Weather History for Crossville, TN

Change the Weather History Date:

Monday, November 4, 2013

  Actual Average Record
Temperature  
Mean Temperature 48 °F 52 °F  
Max Temperature 60 °F 62 °F 75 °F (1987)
Min Temperature 36 °F 41 °F 16 °F (1991)
Degree Days  
Heating Degree Days 17    
Month to date heating degree days 63  
Since 1 July heating degree days 327  
Cooling Degree Days 0    
Month to date cooling degree days 0  
Year to date cooling degree days 922  
Moisture  
Dew Point 35 °F    
Average Humidity 61    
Maximum Humidity 85    
Minimum Humidity 37    
Precipitation  
Precipitation 0.00 in 0.14 in 1.96 in (1992)
Month to date precipitation 0.21 0.55  
Year to date precipitation 50.99 45.59  
Sea Level Pressure  
Sea Level Pressure 30.36 in    
Wind  
Wind Speed 3 mph (SSE)    
Max Wind Speed 14 mph    
Max Gust Speed 23 mph    
Visibility 10 miles    
Events      
T = Trace of Precipitation, MM = Missing Value Source: NWS Daily Summary

Daily Weather History Graph

Daily Weather History Graph

Search for Another Location

Airport:

Trip Planner

Search our weather history database for the weather conditions in past years. The results will help you decide how hot, cold, wet, or windy it might be!

Date:

Astronomy

Nov. 04, 2013 Rise Set
Actual Time 6:05 AM CST 4:41 PM CST
Civil Twilight 5:39 AM CST 5:08 PM CST
Nautical Twilight 5:08 AM CST 5:38 PM CST
Astronomical Twilight 4:38 AM CST 6:08 PM CST
Moon 7:13 AM CST (11/4) 5:47 PM CST (11/4)
Length of Visible Light 11h 28m
Length of Day
10h 35m
New Moon, 2% of the Moon is Illuminated
Nov 4
New Moon
Nov 9
First Quarter
Nov 17
Full
Nov 25
Last Quarter
Dec 2
New

Hourly Weather History & Observations

Time (CST) Temp. Windchill Dew Point Humidity Pressure Visibility Wind Dir Wind Speed Gust Speed Precip Events Conditions
12:53 AM 41.0 °F 39.0 °F 33.1 °F 73% 30.32 in 10.0 mi ESE 3.5 mph - N/A   Clear
1:53 AM 39.9 °F - 33.1 °F 77% 30.31 in 10.0 mi Calm Calm - N/A   Clear
2:53 AM 37.0 °F - 33.1 °F 86% 30.32 in 10.0 mi Calm Calm - N/A   Clear
3:53 AM 37.0 °F - 33.1 °F 86% 30.33 in 10.0 mi Calm Calm - N/A   Clear
4:53 AM 37.0 °F - 34.0 °F 89% 30.34 in 10.0 mi Calm Calm - N/A   Clear
5:53 AM 37.9 °F - 34.0 °F 86% 30.37 in 10.0 mi Calm Calm - N/A   Clear
6:53 AM 39.0 °F - 35.1 °F 86% 30.37 in 10.0 mi Calm Calm - N/A   Clear
7:53 AM 46.9 °F - 37.0 °F 68% 30.38 in 10.0 mi Calm Calm - N/A   Clear
8:53 AM 52.0 °F - 32.0 °F 47% 30.39 in 10.0 mi SSE 8.1 mph 18.4 mph N/A   Clear
9:53 AM 54.0 °F - 32.0 °F 43% 30.40 in 10.0 mi South 8.1 mph - N/A   Clear
10:53 AM 57.0 °F - 34.0 °F 42% 30.40 in 10.0 mi SSE 6.9 mph - N/A   Clear
11:53 AM 57.9 °F - 33.1 °F 39% 30.37 in 10.0 mi South 9.2 mph - N/A   Clear
12:53 PM 59.0 °F - 34.0 °F 39% 30.36 in 10.0 mi SSE 9.2 mph - N/A   Clear
1:53 PM 59.0 °F - 34.0 °F 39% 30.34 in 10.0 mi SE 8.1 mph 16.1 mph N/A   Clear
2:53 PM 57.0 °F - 36.0 °F 45% 30.36 in 10.0 mi Variable 4.6 mph - N/A   Clear
3:53 PM 55.9 °F - 36.0 °F 47% 30.34 in 10.0 mi SE 4.6 mph - N/A   Clear
4:53 PM 54.0 °F - 37.0 °F 53% 30.35 in 10.0 mi Calm Calm - N/A   Clear
5:53 PM 50.0 °F - 39.0 °F 66% 30.36 in 10.0 mi Calm Calm - N/A   Clear
6:53 PM 52.0 °F - 37.0 °F 57% 30.38 in 10.0 mi Variable 3.5 mph - N/A   Clear
7:53 PM 52.0 °F - 37.0 °F 57% 30.36 in 10.0 mi SSE 5.8 mph - N/A   Clear
8:53 PM 51.1 °F - 36.0 °F 56% 30.38 in 10.0 mi Calm Calm - N/A   Clear
9:53 PM 50.0 °F - 36.0 °F 59% 30.39 in 10.0 mi Calm Calm - N/A   Clear
10:53 PM 48.9 °F - 35.1 °F 59% 30.38 in 10.0 mi Calm Calm - N/A   Clear
11:53 PM 48.9 °F - 34.0 °F 56% 30.38 in 10.0 mi SW 3.5 mph - N/A   Clear